Orbital Elements at Epoch 2455430.5 (2010-Aug-22.0) TDB
Reference: JPL 9 (heliocentric ecliptic J2000)
Element | Value | Uncertainty (1-sigma) | Units |
e | .1735992815756038 | 1.5385e-06 | |
a | 4.862122716926783 | 1.6684e-05 | au |
q | 4.018061706335871 | 1.1272e-05 | au |
i | 4.721092122703737 | 7.2616e-05 | deg |
node | 87.18681736250591 | 0.0013107 | deg |
peri | 26.01457121473731 | 0.025349 | deg |
M | 302.3911492658 | 0.018554 | deg |
tp | 2456057.148510071162 (2012-May-09.64851007) | 0.20505 | TDB |
period | 3915.951468403324 10.72 | 0.020156 5.518e-05 | d yr |
n | .09193168069235165 | 4.7319e-07 | deg/d |
Q | 5.706183727517695 | 1.9581e-05 | au |
|
| | Orbit Determination Parameters
Additional Information
|